DW7955 Weather Reports


Display with metric or nautical units.
time (UTC)temp
F
wind
direction
speed
MPH
gust
MPH
rain 1hr
in
rain 24hr
in
rain mn
in
humidity
%
barometer
mb
20260510020055 70 74 5.0 10.0 0.00 0.00 0.00 25 1004.7
20260510014606 70 75 4.0 9.0 0.00 0.00 0.00 24 1004.2
20260510013054 71 117 4.0 7.0 0.00 0.00 0.00 22 1004.3
20260510011559 72 32 3.0 17.0 0.00 0.00 0.00 23 1004.7
20260510004557 71 336 4.0 14.0 0.00 0.00 0.00 27 1005.4
20260510003059 71 7 9.0 22.0 0.00 0.00 0.00 25 1005.0
20260510001552 72 36 9.0 16.0 0.00 0.00 0.00 24 1004.5
20260510000055 73 9 10.0 22.0 0.00 0.00 0.00 21 1004.4
20260509234605 74 13 19.0 32.0 0.00 0.00 0.00 20 1003.6
20260509233050 74 37 6.0 23.0 0.00 0.00 0.00 19 1003.2
20260509231550 75 65 9.0 17.0 0.00 0.00 0.00 18 1002.7
20260509230052 75 49 11.0 16.0 0.00 0.00 0.00 18 1002.8
20260509224549 75 22 9.0 20.0 0.00 0.00 0.00 18 1002.5
20260509223056 75 1 12.0 27.0 0.00 0.00 0.00 18 1002.6
20260509221551 78 10 13.0 22.0 0.00 0.00 0.00 16 1002.4
20260509220058 81 176 7.0 12.0 0.00 0.00 0.00 12 1001.8
20260509214547 81 125 4.0 7.0 0.00 0.00 0.00 12 1001.8
20260509213045 80 200 3.0 12.0 0.00 0.00 0.00 12 1002.0
20260509211545 81 136 3.0 7.0 0.00 0.00 0.00 12 1002.1
20260509210041 80 242 2.0 9.0 0.00 0.00 0.00 14 1002.5
20260509204547 81 291 4.0 9.0 0.00 0.00 0.00 12 1002.8
20260509203038 81 252 1.0 8.0 0.00 0.00 0.00 14 1003.0
20260509201532 80 148 5.0 13.0 0.00 0.00 0.00 14 1003.6
20260509200037 80 351 4.0 11.0 0.00 0.00 0.00 13 1003.9
20260509194537 79 241 4.0 10.0 0.00 0.00 0.00 14 1004.2
20260509193035 79 217 7.0 17.0 0.00 0.00 0.00 14 1004.5
20260509191524 78 246 4.0 11.0 0.00 0.00 0.00 15 1004.7
20260509190023 79 219 9.0 16.0 0.00 0.00 0.00 15 1005.0
20260509184520 79 261 3.0 11.0 0.00 0.00 0.00 16 1005.1
20260509183016 78 314 7.0 15.0 0.00 0.00 0.00 16 1005.3
20260509181513 77 298 6.0 15.0 0.00 0.00 0.00 16 1005.6
20260509180010 76 253 5.0 19.0 0.00 0.00 0.00 17 1005.6
20260509174509 76 253 3.0 17.0 0.00 0.00 0.00 16 1005.9
20260509173005 75 329 2.0 14.0 0.00 0.00 0.00 19 1006.1
20260509171506 75 271 3.0 13.0 0.00 0.00 0.00 18 1006.2
20260509170003 74 262 7.0 17.0 0.00 0.00 0.00 18 1006.4
20260509164600 74 286 3.0 11.0 0.00 0.00 0.00 19 1006.5
20260509163105 73 271 8.0 16.0 0.00 0.00 0.00 20 1006.5
20260509161552 72 299 3.0 10.0 0.00 0.00 0.00 26 1006.6
20260509160049 70 328 6.0 13.0 0.00 0.00 0.00 27 1006.8
20260509154557 68 237 3.0 12.0 0.00 0.00 0.00 33 1006.8
20260509153040 65 298 4.0 10.0 0.00 0.00 0.00 35 1006.8
20260509151537 64 247 3.0 9.0 0.00 0.00 0.00 38 1007.0
20260509150032 61 240 2.0 4.0 0.00 0.00 0.00 49 1007.3
20260509144530 60 240 2.0 4.0 0.00 0.00 0.00 51 1007.3
20260509143031 59 221 1.0 4.0 0.00 0.00 0.00 52 1007.2
20260509141523 57 276 3.0 6.0 0.00 0.00 0.00 54 1007.7
20260509140019 55 227 2.0 5.0 0.00 0.00 0.00 57 1007.6
20260509134516 54 244 3.0 5.0 0.00 0.00 0.00 58 1007.6
20260509133014 53 351 1.0 5.0 0.00 0.00 0.00 60 1007.8
20260509131526 51 351 1.0 4.0 0.00 0.00 0.00 65 1007.7
20260509130021 49 291 0.0 4.0 0.00 0.00 0.00 67 1007.7
20260509124508 47 253 0.0 2.0 0.00 0.00 0.00 72 1007.6
20260509123009 46 286 0.0 3.0 0.00 0.00 0.00 74 1007.4
20260509121511 45 205 0.0 2.0 0.00 0.00 0.00 75 1007.3
20260509120007 45 205 2.0 4.0 0.00 0.00 0.00 76 1007.1
20260509114504 45 274 0.0 0.0 0.00 0.00 0.00 75 1006.9
20260509113002 45 274 0.0 0.0 0.00 0.00 0.00 77 1006.9
20260509111502 45 235 0.0 0.0 0.00 0.00 0.00 76 1006.9
20260509110100 45 235 0.0 0.0 0.00 0.00 0.00 76 1006.9
20260509104557 46 235 0.0 0.0 0.00 0.00 0.00 74 1007.0
20260509103103 46 235 0.0 1.0 0.00 0.00 0.00 73 1007.1
20260509101555 47 235 1.0 4.0 0.00 0.00 0.00 74 1007.0
20260509100054 46 235 0.0 0.0 0.00 0.00 0.00 74 1007.0
20260509094555 47 235 0.0 0.0 0.00 0.00 0.00 73 1007.2
20260509093051 47 235 0.0 1.0 0.00 0.00 0.00 73 1007.0
20260509091548 47 235 0.0 0.0 0.00 0.00 0.00 72 1006.9
20260509084544 49 235 0.0 0.0 0.00 0.00 0.00 70 1007.1
20260509083049 49 235 0.0 0.0 0.00 0.00 0.00 67 1007.1
20260509081536 51 235 0.0 3.0 0.00 0.00 0.00 64 1007.2
20260509080032 53 125 0.0 4.0 0.00 0.00 0.00 58 1007.1
20260509074529 53 125 0.0 0.0 0.00 0.00 0.00 58 1007.5
20260509073027 53 125 0.0 0.0 0.00 0.00 0.00 58 1007.8
20260509071526 53 125 0.0 0.0 0.00 0.00 0.00 58 1007.7
20260509070023 54 125 0.0 2.0 0.00 0.00 0.00 57 1007.9
20260509064521 54 125 0.0 3.0 0.00 0.00 0.00 58 1008.1
20260509063020 54 125 1.0 3.0 0.00 0.00 0.00 58 1008.2
20260509061521 54 125 2.0 3.0 0.00 0.00 0.00 57 1008.2
20260509060016 54 125 0.0 0.0 0.00 0.00 0.00 56 1008.2
20260509054515 56 125 0.0 1.0 0.00 0.00 0.00 54 1008.3
20260509053015 55 125 0.0 0.0 0.00 0.00 0.00 54 1008.3
20260509051514 56 125 0.0 0.0 0.00 0.00 0.00 53 1008.5
20260509050014 57 125 0.0 0.0 0.00 0.00 0.00 51 1008.5
20260509044513 60 125 0.0 0.0 0.00 0.00 0.00 47 1008.5
20260509043013 61 117 0.0 0.0 0.00 0.00 0.00 43 1008.4
20260509041515 62 113 2.0 3.0 0.00 0.00 0.00 41 1008.4
20260509040012 63 93 2.0 8.0 0.00 0.00 0.00 40 1008.1
20260509034510 63 109 3.0 9.0 0.00 0.00 0.00 39 1007.8
20260509033010 64 97 5.0 9.0 0.00 0.00 0.00 38 1007.7
20260509031510 64 53 6.0 10.0 0.00 0.00 0.00 38 1007.6
20260509030010 65 67 6.0 10.0 0.00 0.00 0.00 37 1007.2
20260509024512 65 57 6.0 10.0 0.00 0.00 0.00 37 1007.1
20260509023008 66 53 6.0 10.0 0.00 0.00 0.00 36 1007.0
20260509021508 66 48 6.0 11.0 0.00 0.00 0.00 35 1006.6